[[{"header":{"parameterUnit":"m.s-1","parameterCategory":1,"la1":30.2991,"la2":30.254,"lo1":-89.0895,"lo2":-89.0444,"dy":0.0017,"dx":0.0017,"nx":28,"ny":28,"refTime":"2025-06-11T03:00:00:Z","depth":0,"parameterNumber":2,"parameterNumberName":"U-component_of_WINDS"},"data":[0,0,0,0,0,0,0,0,0,0,0,0,0,0,0,0,0,0,0,0,0,0,0,0,0,0,0,0,0,0,0,0,0,0,0,0,0,0,0,0,0,0,0,0,0,0,0,0,0,0,0,0,0,0,0,0,0,0,-1.339,-1.339,0,-1.3412,-1.3412,-1.3412,-1.3332,-1.333,-1.3327,-1.3325,-1.3346,-1.3349,-1.3351,0,0,0,0,0,0,0,0,0,0,0,0,0,-1.3275,-1.3277,-1.339,-1.339,-1.339,-1.3412,-1.3412,-1.3413,-1.3332,-1.333,-1.3327,-1.3324,-1.3345,-1.3348,-1.3352,0,0,0,0,0,0,0,0,0,0,0,0,0,-1.3314,-1.3278,-1.3389,-1.3353,-1.335,-1.3412,-1.3412,-1.3413,-1.3333,-1.3329,-1.3326,-1.3323,-1.3344,-1.3348,-1.3352,-1.345,0,0,-1.3365,-1.3367,0,0,0,0,0,0,0,0,-1.3312,-1.3318,-1.3358,-1.3355,-1.3352,-1.3366,-1.3379,-1.3425,-1.3334,-1.3339,-1.3325,-1.3321,-1.3355,-1.3358,-1.337,-1.3451,-1.3452,-1.3365,-1.3368,-1.337,-1.3371,0,0,0,0,0,0,0,-1.3309,-1.3317,-1.3398,-1.3359,-1.3355,-1.3334,-1.3336,-1.3388,-1.3367,-1.3339,-1.3333,-1.3337,-1.3353,-1.3367,-1.337,-1.3452,-1.3365,-1.3369,-1.3372,-1.3373,-1.3614,-1.3617,0,0,0,0,0,0,-1.3312,-1.3315,-1.3398,-1.3399,-1.3323,-1.3339,-1.3341,-1.3365,-1.3366,-1.3363,-1.334,-1.3333,-1.3361,-1.3365,-1.3371,-1.3485,-1.337,-1.3374,-1.3376,-1.361,-1.3614,-1.3619,0,0,0,0,0,0,-1.3309,-1.332,-1.3397,-1.3355,-1.3364,-1.3345,-1.3373,-1.3367,-1.3381,-1.3367,-1.3363,-1.3358,-1.3358,-1.3365,-1.3431,-1.3484,-1.3375,-1.3379,-1.3605,-1.3611,-1.3617,-1.3714,0,0,0,0,0,0,-1.3306,-1.3319,-1.3357,-1.3357,-1.3366,-1.3458,-1.3376,-1.337,-1.3388,-1.338,-1.3383,-1.338,-1.3356,-1.3425,-1.3435,-1.3488,-1.3383,-1.36,-1.3608,-1.3615,-1.3706,-1.3723,-1.3737,0,0,0,0,0,-1.3303,-1.3383,-1.3359,-1.337,-1.3413,-1.3461,-1.3466,-1.3438,-1.3393,-1.343,-1.3421,-1.338,-1.3477,-1.3433,-1.3443,-1.3498,-1.3597,-1.3606,-1.3614,-1.3699,-1.372,-1.3737,0,0,0,0,0,0,-1.3389,-1.3383,-1.3356,-1.3439,-1.3451,-1.3447,-1.3493,-1.346,-1.3484,-1.3475,-1.3438,-1.344,-1.3512,-1.3512,-1.3462,-1.3593,-1.3529,-1.354,-1.359,-1.3609,-1.3625,-1.3623,-1.3386,0,0,0,0,0,-1.3418,-1.3459,-1.345,-1.3524,-1.3532,-1.3512,-1.3532,-1.3509,-1.3519,-1.3524,-1.352,-1.3532,-1.3564,-1.3587,-1.3617,-1.3706,-1.3705,-1.3749,-1.3765,-1.3777,-1.3787,-1.3834,-1.3853,-1.3647,-1.3647,-1.3647,0,0,-1.3478,-1.348,-1.3507,-1.3542,-1.3548,-1.359,-1.3517,-1.3564,-1.3594,-1.3531,-1.3593,-1.3591,-1.3601,-1.3679,-1.3713,-1.3681,-1.3844,-1.3788,-1.3799,-1.3802,-1.3845,-1.3864,-1.3882,-1.3653,-1.3652,-1.3651,0,0,-1.3609,-1.3614,-1.3676,-1.3685,-1.3696,-1.3682,-1.3697,-1.3698,-1.3694,-1.3757,-1.371,-1.3745,-1.3803,-1.3812,-1.3824,-1.3958,-1.3921,-1.3969,-1.4049,-1.4095,-1.4111,-1.4125,-1.4172,-1.419,-1.3979,-1.3979,-1.398,0,-1.3681,-1.3743,-1.3712,-1.3763,-1.3779,-1.3725,-1.3787,-1.3796,-1.3816,-1.3829,-1.3792,-1.3864,-1.3867,-1.3946,-1.3979,-1.3991,-1.4006,-1.3968,-1.4111,-1.4125,-1.4138,-1.4183,-1.4201,-1.3985,-1.3984,-1.3984,-1.3983,0,-1.3832,-1.3875,-1.3924,-1.3946,-1.3968,-1.4024,-1.4001,-1.4026,-1.4002,-1.3992,-1.4055,-1.4057,-1.4086,-1.4103,-1.4079,-1.4179,-1.4159,-1.4118,-1.4053,-1.4164,-1.4205,-1.4222,-1.3993,-1.3991,-1.399,-1.3988,0,0,-1.4017,-1.4021,-1.404,-1.4049,-1.4057,-1.409,-1.4143,-1.4172,-1.4195,-1.421,-1.4254,-1.4304,-1.4266,-1.428,-1.4257,-1.4297,-1.4403,-1.4251,-1.4251,-1.4279,-1.4512,-1.4542,-1.4563,-1.4378,-1.4381,-1.4384,-1.4511,0,-1.4145,-1.4237,-1.4211,-1.4303,-1.4342,-1.4291,-1.4337,-1.4347,-1.4339,-1.4371,-1.4361,-1.4397,-1.4345,-1.4353,-1.4391,-1.4382,-1.4449,-1.4373,-1.4417,-1.4419,-1.4416,-1.4584,-1.4617,-1.4736,-1.4527,-1.453,-1.4532,0,-1.4306,-1.4329,-1.4425,-1.4427,-1.4442,-1.4485,-1.4509,-1.454,-1.455,-1.4541,-1.4557,-1.4525,-1.4577,-1.4513,-1.4583,-1.4532,-1.4548,-1.4547,-1.4551,-1.4553,-1.4482,-1.4591,-1.4774,-1.4792,-1.4557,-1.4555,-1.4553,0,-1.4431,-1.4486,-1.455,-1.4559,-1.4563,-1.4594,-1.4597,-1.4603,-1.4622,-1.4643,-1.4655,-1.4682,-1.4696,-1.4717,-1.4694,-1.4649,-1.4767,-1.4701,-1.4761,-1.4762,-1.4787,-1.4786,-1.4975,-1.48,-1.4799,-1.4799,-1.4799,0,-1.4576,-1.4637,-1.4606,-1.4646,-1.4712,-1.4681,-1.4747,-1.4744,-1.475,-1.4788,-1.4745,-1.4781,-1.4748,-1.4781,-1.4762,-1.4823,-1.483,-1.4824,-1.4818,-1.4827,-1.4828,-1.4837,-1.4828,-1.4804,-1.4803,-1.4802,-1.4801,0,-1.4726,-1.4709,-1.4775,-1.4774,-1.4775,-1.4823,-1.4821,-1.4858,-1.4846,-1.4894,-1.4904,-1.4886,-1.4923,-1.4901,-1.4938,-1.4926,-1.5005,-1.4988,-1.5002,-1.4997,-1.5057,-1.5052,-1.5259,-1.5284,-1.5093,-1.5095,-1.5096,0,-1.482,-1.4865,-1.4869,-1.4891,-1.4897,-1.4934,-1.4953,-1.4924,-1.4946,-1.496,-1.4995,-1.5027,-1.5052,-1.5112,-1.5103,-1.513,-1.5113,-1.5184,-1.5117,-1.5125,-1.5114,-1.5111,-1.5115,-1.5197,-1.52,-1.5201,-1.5203,0,-1.4987,-1.4976,-1.5006,-1.5033,-1.5057,-1.5077,-1.5093,-1.5114,-1.5085,-1.5111,-1.5148,-1.5167,-1.5205,-1.5238,-1.5262,-1.5264,-1.5229,-1.5224,-1.5239,-1.5249,-1.5255,-1.5251,-1.5038,-1.5219,-1.5218,-1.5216,-1.5216,-1.5215,-1.5111,-1.5149,-1.5157,-1.5192,-1.5201,-1.5217,-1.5251,-1.5244,-1.5275,-1.5304,-1.5285,-1.5328,-1.5336,-1.5365,-1.5371,-1.5404,-1.5376,-1.5398,-1.5403,-1.5409,-1.5417,-1.525,-1.5408,-1.5408,-1.5408,-1.5407,-1.5407,0,-1.5276,-1.5279,-1.5311,-1.5335,-1.5362,-1.5327,-1.5343,-1.5368,-1.5407,-1.5418,-1.5443,-1.5485,-1.5517,-1.551,-1.5538,-1.5566,-1.555,-1.5574,-1.5571,-1.5572,-1.5441,-1.5425,-1.5586,-1.5586,-1.5586,-1.5586,-1.5586,-1.5586,-1.5365,-1.5427,-1.5417,-1.5483,-1.5485,-1.5527,-1.5539,-1.5554,-1.5562,-1.5611,-1.5638,-1.5633,-1.5636,-1.5665,-1.5692,-1.5689,-1.5701,-1.5731,-1.5722,-1.5599,-1.5582,-1.5565,-1.5549,-1.5734,-1.5734,-1.585,-1.5851,-1.5852]},{"header":{"parameterUnit":"m.s-1","parameterCategory":1,"la1":30.2991,"la2":30.254,"lo1":-89.0895,"lo2":-89.0444,"dy":0.0017,"dx":0.0017,"nx":28,"ny":28,"refTime":"2025-06-11T03:00:00:Z","depth":0,"parameterNumber":3,"parameterNumberName":"V-component_of_WINDS"},"data":[0,0,0,0,0,0,0,0,0,0,0,0,0,0,0,0,0,0,0,0,0,0,0,0,0,0,0,0,0,0,0,0,0,0,0,0,0,0,0,0,0,0,0,0,0,0,0,0,0,0,0,0,0,0,0,0,0,0,1.5198,1.5198,0,1.5231,1.5232,1.5232,1.529,1.5291,1.5292,1.5293,1.5326,1.5325,1.5325,0,0,0,0,0,0,0,0,0,0,0,0,0,1.5183,1.5183,1.5198,1.5198,1.5199,1.5231,1.5232,1.5232,1.529,1.5291,1.5292,1.5294,1.5326,1.5325,1.5325,0,0,0,0,0,0,0,0,0,0,0,0,0,1.52,1.5183,1.5198,1.5231,1.5235,1.5231,1.5232,1.5232,1.5289,1.5291,1.5293,1.5294,1.5326,1.5326,1.5325,1.5291,0,0,1.5325,1.5325,0,0,0,0,0,0,0,0,1.5199,1.5201,1.5226,1.5229,1.5233,1.5258,1.5239,1.5252,1.5289,1.5269,1.5293,1.5295,1.5302,1.5304,1.5306,1.5293,1.5294,1.5325,1.5324,1.5324,1.5324,0,0,0,0,0,0,0,1.5198,1.52,1.5211,1.5226,1.5231,1.5245,1.5249,1.5241,1.5276,1.5271,1.5275,1.5278,1.5304,1.5306,1.5307,1.5295,1.5325,1.5324,1.5324,1.5324,1.5255,1.5254,0,0,0,0,0,0,1.5192,1.5198,1.521,1.5212,1.522,1.5244,1.5248,1.5248,1.5276,1.5282,1.5277,1.5281,1.5306,1.5308,1.5309,1.527,1.5324,1.5324,1.5324,1.5257,1.5255,1.5253,0,0,0,0,0,0,1.5192,1.5193,1.5209,1.5206,1.521,1.5242,1.5242,1.5248,1.5251,1.5281,1.5287,1.5273,1.5307,1.5309,1.5295,1.5272,1.5324,1.5324,1.5259,1.5256,1.5254,1.5193,0,0,0,0,0,0,1.5191,1.5192,1.5179,1.5206,1.521,1.5195,1.524,1.5248,1.525,1.5256,1.5279,1.5284,1.5309,1.5295,1.5295,1.5273,1.5324,1.5261,1.5258,1.5255,1.5198,1.5189,1.5182,0,0,0,0,0,1.519,1.5161,1.5178,1.518,1.5194,1.5193,1.5195,1.5225,1.5248,1.5236,1.5255,1.5283,1.5275,1.5294,1.5294,1.5271,1.5263,1.5259,1.5255,1.5201,1.5191,1.5182,0,0,0,0,0,0,1.513,1.5164,1.5185,1.5163,1.5175,1.5203,1.5188,1.5213,1.5218,1.5223,1.5259,1.5264,1.5245,1.5257,1.5277,1.524,1.5274,1.527,1.5232,1.5223,1.5215,1.5212,1.5323,0,0,0,0,0,1.5114,1.511,1.5141,1.5119,1.5124,1.5155,1.5155,1.5178,1.5191,1.5196,1.5214,1.5226,1.5226,1.5226,1.5228,1.52,1.5206,1.5185,1.5177,1.5171,1.5166,1.5153,1.5144,1.5241,1.5241,1.5241,0,0,1.5081,1.51,1.5095,1.5107,1.5119,1.5114,1.5159,1.5151,1.5148,1.5195,1.5183,1.5197,1.5212,1.5192,1.5184,1.5201,1.5141,1.5166,1.516,1.5159,1.5148,1.5139,1.513,1.5238,1.5239,1.5239,0,0,1.5018,1.5032,1.5015,1.5026,1.5044,1.5065,1.5061,1.5086,1.5097,1.5086,1.5121,1.5118,1.5118,1.5128,1.5132,1.5075,1.5101,1.5075,1.5033,1.5019,1.5012,1.5005,1.4984,1.4976,1.5071,1.5071,1.507,0,1.4974,1.4969,1.5003,1.4994,1.4998,1.5042,1.5024,1.5034,1.5051,1.5052,1.5072,1.5074,1.5087,1.5069,1.5055,1.5058,1.5054,1.5071,1.501,1.5004,1.4998,1.4978,1.497,1.5067,1.5068,1.5068,1.5068,0,1.4914,1.491,1.4894,1.491,1.4913,1.4899,1.4932,1.493,1.4953,1.4972,1.496,1.4978,1.4985,1.4983,1.5004,1.4968,1.4978,1.5004,1.5038,1.4985,1.4967,1.4959,1.5062,1.5064,1.5065,1.5065,0,0,1.4811,1.4848,1.4841,1.485,1.4873,1.487,1.486,1.4867,1.4865,1.4876,1.4867,1.4867,1.4891,1.4896,1.492,1.4908,1.486,1.4935,1.4936,1.4919,1.4821,1.48,1.4791,1.4879,1.4877,1.4876,1.4819,0,1.4752,1.4736,1.4767,1.4743,1.4739,1.4782,1.4772,1.4785,1.4803,1.4803,1.4823,1.4822,1.4854,1.4858,1.4848,1.4868,1.4841,1.4873,1.487,1.4869,1.4863,1.4782,1.476,1.4705,1.4813,1.4811,1.4811,0,1.468,1.4688,1.4664,1.469,1.4689,1.468,1.469,1.4689,1.4705,1.4719,1.4726,1.4754,1.4745,1.478,1.4768,1.4789,1.479,1.48,1.4799,1.4798,1.4835,1.4777,1.4688,1.4679,1.48,1.4801,1.4802,0,1.4606,1.4611,1.4598,1.4603,1.4633,1.4626,1.4638,1.4656,1.4659,1.4667,1.4669,1.4676,1.468,1.4685,1.4714,1.4736,1.4698,1.4735,1.4709,1.4708,1.4697,1.4697,1.4605,1.47,1.47,1.4701,1.4701,0,1.4536,1.4519,1.4565,1.4556,1.4538,1.4575,1.4557,1.4573,1.4589,1.4584,1.4622,1.4617,1.4656,1.4655,1.4678,1.4665,1.4666,1.4677,1.4683,1.4672,1.4671,1.4672,1.4676,1.4698,1.4699,1.4699,1.47,0,1.4449,1.4479,1.4467,1.4497,1.4504,1.449,1.4516,1.4509,1.453,1.4524,1.4524,1.4557,1.4558,1.4588,1.4595,1.4611,1.4587,1.4601,1.4581,1.4585,1.4557,1.4558,1.4461,1.445,1.4553,1.4552,1.4551,0,1.4401,1.4389,1.4419,1.4418,1.4429,1.4428,1.4431,1.4467,1.4469,1.4488,1.4478,1.4483,1.4488,1.4487,1.4511,1.4517,1.453,1.4496,1.4531,1.4521,1.4528,1.4528,1.4527,1.4488,1.4486,1.4485,1.4485,0,1.4312,1.4328,1.4332,1.434,1.4343,1.4352,1.4363,1.436,1.44,1.44,1.4402,1.4406,1.4414,1.4417,1.4428,1.444,1.4468,1.4474,1.4468,1.4456,1.4445,1.4449,1.4559,1.4475,1.4476,1.4477,1.4477,1.4478,1.4243,1.4234,1.4254,1.4256,1.4269,1.4278,1.4273,1.4295,1.4297,1.4306,1.4328,1.4326,1.4344,1.4361,1.4372,1.4371,1.4388,1.4379,1.4377,1.4374,1.4368,1.4446,1.4373,1.4373,1.4374,1.4374,1.4374,0,1.4155,1.417,1.4172,1.4187,1.4189,1.4217,1.4231,1.4231,1.4229,1.4244,1.4248,1.425,1.4254,1.428,1.4287,1.4281,1.4294,1.4282,1.4281,1.4284,1.4352,1.4356,1.4271,1.4271,1.4271,1.4271,1.4271,1.4271,1.4109,1.4096,1.4115,1.4109,1.4124,1.4123,1.4128,1.4138,1.415,1.415,1.4154,1.4171,1.419,1.4199,1.4204,1.4212,1.4212,1.4194,1.4206,1.4269,1.4279,1.4288,1.4292,1.4194,1.4194,1.4137,1.4137,1.4136]}]]